This demonstration page uses our WeatherBlox Daily Observations layout. Learn more.

Left ArrowRight Arrow

39.12711, -84.51439

Hourly Observations for January 6, 2017

Temp ( °F °C ) Dew Point ( °F °C ) Humidity (%) Winds ( mph kmh ) Pressure ( in mb ) Visibility ( mi km ) Precip ( " mm )
12:30 am 00:30 Mostly Cloudy 16 -9 7 -14 67 67 NW 7 11 30.15 1021 10 16 N/A
12:53 am 00:53 Cloudy 15 -9.4 8 -13.3 74 74 NNW 10 17 30.16 1021 10 16 N/A
1:22 am 01:22 Partly Cloudy 12 -11 3 -16 67 67 N 12 19 30.18 1022 10 16 N/A
1:53 am 01:53 Partly Cloudy 12 -11.1 5 -15 73 73 NNW 5 7 30.17 1022 10 16 N/A
2:53 am 02:53 Clear 11 -11.7 4 -15.6 73 73 NNW 6 9 30.19 1022 10 16 N/A
3:53 am 03:53 Clear 11 -11.7 5 -15 77 77 NW 3 6 30.18 1022 10 16 N/A
4:53 am 04:53 Clear 12 -11.1 4 -15.6 70 70 NW 6 9 30.22 1023 10 16 N/A
5:53 am 05:53 Partly Cloudy 13 -10.6 6 -14.4 74 74 WNW 5 7 30.20 1023 10 16 N/A
6:06 am 06:06 Mostly Cloudy 12 -11 5 -15 73 73 NW 7 11 30.21 1023 10 16 N/A
6:48 am 06:48 Partly Cloudy 12 -11 5 -15 73 73 WNW 7 11 30.24 1024 10 16 N/A
6:53 am 06:53 Mostly Clear 12 -11.1 5 -15 73 73 NW 7 11 30.23 1024 10 16 N/A
7:53 am 07:53 Clear 10 -12.2 5 -15 80 80 WNW 8 13 30.27 1025 10 16 N/A
8:53 am 08:53 Sunny 10 -12.2 5 -15 80 80 VRB 5 7 30.28 1026 10 16 N/A
9:53 am 09:53 Sunny 12 -11.1 3 -16.1 67 67 NW 3 6 30.32 1027 10 16 N/A
10:53 am 10:53 Sunny 13 -10.6 3 -16.1 64 64 N 6 9 30.31 1026 10 16 N/A
11:53 am 11:53 Mostly Cloudy 13 -10.6 3 -16.1 64 64 NNW 7 11 30.32 1027 10 16 N/A
12:53 pm 12:53 Mostly Cloudy 14 -10 4 -15.6 64 64 WSW 6 9 30.31 1026 10 16 N/A
1:53 pm 13:53 Mostly Cloudy 15 -9.4 4 -15.6 61 61 W 9 15 30.30 1026 10 16 N/A
2:53 pm 14:53 Cloudy 15 -9.4 4 -15.6 61 61 NW 6 9 30.32 1027 10 16 N/A
3:53 pm 15:53 Mostly Sunny 15 -9.4 2 -16.7 56 56 NNW 6 9 30.33 1027 10 16 N/A
4:53 pm 16:53 Partly Cloudy 14 -10 1 -17.2 56 56 WNW 5 7 30.35 1028 10 16 N/A
5:53 pm 17:53 Mostly Clear 13 -10.6 N/A 56 56 NNW 9 15 30.36 1028 10 16 N/A
6:53 pm 18:53 Clear 11 -11.7 N/A 61 61 N 5 7 30.37 1029 10 16 N/A
7:53 pm 19:53 Clear 10 -12.2 -1 -18.3 61 61 N 6 9 30.40 1029 10 16 N/A
8:53 pm 20:53 Clear 11 -11.7 N/A 61 61 N 7 11 30.41 1030 10 16 N/A
9:53 pm 21:53 Clear 10 -12.2 N/A 63 63 N 6 9 30.43 1031 10 16 N/A
10:53 pm 22:53 Clear 9 -12.8 -1 -18.3 64 64 NNW 5 7 30.44 1031 10 16 N/A
11:53 pm 23:53 Clear 9 -12.8 N/A 66 66 NNW 8 13 30.45 1031 10 16 N/A

Powered by AerisWeather